Погода в Замежной

Россия / Республика Коми     65°02′32″N   51°58′28″E
темп.,
°C
ветер,
м/с
пор.,
м/с
влажн.,
%
обл.,
%
осадки,
мм/ч
давл.,
гПа
погр.,
м
24 июня, чт
чт2400:00+15ссв379880 0.0 1016220
03:00+15ссв2595100 0.0 1017236
06:00+14всв2596100 0.8 1015335
09:00+15в248557 0.9 1015381
12:00+21ююв126069 0.0 1015875
15:00+25ююв1152100 0.0 10131207
18:00+24ююв125539 0.0 10111245
21:00+19ю3779100 0.0 1011208
25 июня, пт
пт2500:00+18ююв279493 0.2 1009193
03:00+18юз289729 1.1 1008365
06:00+20з369185 0.6 1008572
09:00+22сз457796 0.9 1008905
12:00+15ссз3587100 0.1 1011395
15:00+14с3585100 0.1 1012461
18:00+13с3585100 0.0 1013571
21:00+13с368598 0.0 1013478
26 июня, сб
сб2600:00+12ссз2677100 0.0 1013310
03:00+11ссз267410 0.0 1014200
06:00+15с2452100 0.0 1014406
09:00+19ссв23345 0.0 1013971
12:00+22с2230100 0.0 10131625
15:00+24с223095 0.0 10111982
18:00+22сз2337100 0.0 10111224
21:00+17зсз2253100 0.0 101120
27 июня, вс
вс2700:00+15ссз2659100 0.0 1012186
03:00+13сз25675 0.0 1013118
06:00+16ссз35515 0.0 1015542
09:00+18ссз453929 0.0 10161182
12:00+20ссз344053 0.0 10161772
15:00+21ссз34325 0.0 10171949
18:00+20ссв33319 0.0 10171735
21:00+14всв27540 0.0 1018155
28 июня, пн
пн2800:00+10вюв22640 0.0 101825
03:00+10вюв126630 0.0 101953
06:00+16юв24495 0.0 1018445
09:00+22ю223651 0.0 10171204
12:00+26ююв123230 0.0 10151756
15:00+27ю243199 0.0 10132366
18:00+26ююв353759 0.0 1012794
21:00+21ююв3115337 0.0 1010284